sat.trackr.live / text

‹ back to catalog

STARLINK-4489

NORAD 53542 · 2022-101R

PAYLOAD ACTIVE UNKNOWN

§ Identity

Operator
Country
US
Launch date
2022-08-19
Launch site
AFETR
Launch vehicle
Mass (kg)
RCS (m²)

Purposes: comms

External: N2YO · Heavens-Above · Gunter

§ Orbital elements

Epoch: 2026-05-25T04:52:29.896320Z

Period
95.44 min
Inclination
53.2135°
Eccentricity
0.0001390
Mean motion
15.08828940 rev/d
Perigee alt
538.8 km
Apogee alt
540.7 km
Semi-major
6,917.9 km
B*
-8.5485e-5
RAAN
80.6373°
Arg perigee
101.4646°
Mean anomaly
258.6503°
Rev number
20,854

§ Raw data

STARLINK-44891 53542U 22101R   26145.20312380 -.00001648  00000+0 -85485-4 0  99962 53542  53.2135  80.6373 0001390 101.4646 258.6503 15.08828940208545

JSON: /api/v1/satellites/53542 · /tle

For live sub-satellite position, see the globe view (requires WebGL).

§ Visibility from observer

Set your observer location to see the next 7 days of passes ≥ 10°. The values pass through the URL so the page stays shareable.

No JS? Fill the form by hand. The geolocation button needs JavaScript.